Regional Weather Roundup
Issued by NWS

Home | Current Version | Previous Version | Graphics & Text | Print | Product List | Glossary Off
Versions: 1 2 3 4 5 6 7 8 9 10 11 12 13 14 15 16 17 18 19 20 21 22 23 24 25 26 27 28 29 30 31 32 33 34 35 36 37 38 39 40 41 42 43 44 45 46 47 48 49 50

000
ASUS43 KMKX 262200
RWRWI

WISCONSIN REGIONAL WEATHER ROUNDUP
NATIONAL WEATHER SERVICE MILWAUKEE/SULLIVAN WI
500 PM CDT TUE JUL 26 2016

NOTE: "FAIR" INDICATES FEW OR NO CLOUDS BELOW 12,000 FEET WITH NO
SIGNIFICANT WEATHER AND/OR OBSTRUCTIONS TO VISIBILITY.

WIZ001-002-006>008-014>016-023>028-262300-
NORTHWEST WISCONSIN

CITY           SKY/WX    TMP DP  RH WIND       PRES   REMARKS
SUPERIOR ARPT  MOSUNNY   84  69  60 NW6       29.93F HX  88
ASHLAND        CLOUDY    87  69  54 NW12      29.94R HX  91
HAYWARD        SUNNY     86  67  52 W8G21     29.97S HX  89
SIREN          SUNNY     88  66  48 W9G16     29.97S HX  90
CUMBERLAND     SUNNY     84  59  42 W9        29.99R HX  84
RICE LAKE      SUNNY     86  64  46 SW10G16   30.00R HX  87
CHETEK         SUNNY     87  65  48 W8        29.98R HX  89
LADYSMITH      CLOUDY    85  66  51 W12       30.00S HX  87
EAU CLAIRE     NOT AVBL
MENOMONIE      SUNNY     90  64  43 S17       29.98S HX  91
NEW RICHMOND   SUNNY     88  61  40 SW15      29.99R HX  88
OSCEOLA        SUNNY     89  64  43 SW10      30.00S HX  90
$$

WIZ003>005-009-010-017-018-262300-
NORTH CENTRAL WISCONSIN

CITY           SKY/WX    TMP DP  RH WIND       PRES   REMARKS
MANITOWISH WTR MOSUNNY   85  64  50 W13G22    29.97F HX  86
ARBOR VITAE    SUNNY     86  63  46 W14G20    29.99R HX  87
WOODRUFF       SUNNY     86  63  46 W14G20    29.99R HX  87
RHINELANDER    SUNNY     87  61  41 W14       30.00R HX  87
EAGLE RIVER    SUNNY     85  60  42 W15       29.97S HX  85
LAND O LAKES   PTSUNNY   85  62  46 SW9G18    29.98S HX  85
PHILLIPS       PTSUNNY   84  64  51 SW12G17   29.98S HX  86
TOMAHAWK       MOSUNNY   84  61  45 SW6       29.99S HX  84
MEDFORD        SUNNY     83  65  54 SW10G16   30.00F HX  85
MERRILL        SUNNY     86  63  45 W12G22    29.99S HX  87
$$

WIZ029-030-035-036-043>047-262300-
CENTRAL WISCONSIN

CITY           SKY/WX    TMP DP  RH WIND       PRES   REMARKS
WAUSAU         SUNNY     86  64  47 SW10      29.97F HX  87
MOSINEE        NOT AVBL
MARSHFIELD     SUNNY     86  65  49 SW13G20   30.00F HX  88
STEVENS POINT  SUNNY     85  63  47 SW10      30.00F HX  86
WAUPACA        MOSUNNY   89  64  42 SW8       29.99F HX  90
WAUTOMA        MOSUNNY   88  66  48 SW8       30.00F HX  90
WISC RAPIDS    SUNNY     88  62  41 SW7G16    30.01F HX  88
CAMP DOUGLAS   NOT AVBL
$$

WIZ011>013-019>022-031-037>040-048>050-262300-
NORTHEAST WISCONSIN

CITY           SKY/WX    TMP DP  RH WIND       PRES   REMARKS
ANTIGO         SUNNY     84  63  49 SW13G18   30.00F HX  85
SHAWANO        SUNNY     89  65  44 W12       29.97F HX  90
OCONTO         SUNNY     87  69  55 SW13      29.95F HX  90
STURGEON BAY   SUNNY     87  67  51 MISG      29.97F HX  90
GREEN BAY      SUNNY     85  69  58 W8        29.97F HX  89
MANITOWOC      NOT AVBL
APPLETON       MOSUNNY   84  63  48 SW9       29.98F HX  85
CLINTONVILLE   SUNNY     88  63  42 SW12      29.97F HX  88
OSHKOSH        SUNNY     85  65  51 VRB6      30.00F HX  86
$$

WIZ032>034-041-042-053>061-262300-
SOUTHWEST WISCONSIN

CITY           SKY/WX    TMP DP  RH WIND       PRES   REMARKS
LA CROSSE      SUNNY     89  65  44 SW6       30.00S HX  91
SPARTA         SUNNY     86  64  47 W5        30.02S HX  87
VIROQUA        SUNNY     85  62  46 CALM      30.04F HX  85
BOSCOBEL       SUNNY     89  67  47 W3        30.01F HX  92
PRAIRIE DU CHI SUNNY     85  59  42 CALM      30.01F HX  84
PLATTEVILLE    MOSUNNY   83  66  56 CALM      30.03F HX  85
$$

WIZ056-057-062-063-064-067-068-262300-
SOUTH CENTRAL WISCONSIN

CITY           SKY/WX    TMP DP  RH WIND       PRES   REMARKS
REEDSBURG      MOSUNNY   85  67  55 SW6       30.02F HX  87
BARABOO/DELLS  MOSUNNY   85  63  47 SW3       30.03F HX  86
LONE ROCK      NOT AVBL
MINERAL POINT  SUNNY     86  63  45 CALM      30.04F HX  87
MADISON        MOSUNNY   86  64  47 N6        30.01F HX  87
MIDDLETON      SUNNY     86  62  43 N5        30.03F HX  86
WATERTOWN      SUNNY     84  65  52 W6        30.02F HX  86
MONROE         SUNNY     84  59  42 CALM      30.04F HX  84
JANESVILLE     MOSUNNY   88  63  42 W6        30.01F HX  88
$$

WIZ051-052-058>065-066-070>072-262300-
SOUTHEAST WISCONSIN

CITY           SKY/WX    TMP DP  RH WIND       PRES   REMARKS
MILWAUKEE      MOSUNNY   84  61  45 SE9       30.01S HX  84
WAUKESHA       MOSUNNY   82  61  47 W8        30.03S HX  83
MILWAUKEE/TIMM SUNNY     84  52  32 SE6       30.01F HX  82
RACINE         SUNNY     84  60  44 SE8       30.03S HX  84
BURLINGTON     MOSUNNY   86  60  41 W3        30.01F HX  86
KENOSHA        SUNNY     84  62  47 SE8       30.01F HX  85
FOND DU LAC    SUNNY     87  62  43 VRB7      30.01F HX  87
SHEBOYGAN      SUNNY     85  63  47 W7        30.00F HX  86
WEST BEND      SUNNY     86  59  39 W7        30.02F HX  85
JUNEAU         SUNNY     83  64  53 SW5       30.04S HX  85
$$

LSZ147-162-262300-
LAKE SUPERIOR

STATION/POSITION TIME  TEMP    WIND        PRES    WAVE
                       AIR SEA DIR/SP/G            HT/PER
                 (UTC) (F)     (DEG/KT/KT) (MB)    (FT/S)
W MID LAKE BUOY  2050   69 66  230/  4/  4 1012.6F   0
DEVILS ISLAND    2100   72     240/ 15/ 17 1013.1R
SAXON HARBOR     2100   85     290/  8/ 13 1013.2S
$$

LMZ867-665-643>646-262300-
LAKE MICHIGAN

STATION/POSITION TIME  TEMP    WIND        PRES    WAVE
                       AIR SEA DIR/SP/G            HT/PER
                 (UTC) (F)     (DEG/KT/KT) (MB)    (FT/S)
CHAMBERS ISLAND  2100   83     180/  9/ 17 1013.9F
S GREEN BAY BUOY 2000   79 76  200/ 10/ 12   N/A
N MID LAKE BUOY  2050   72 71  200/ 14/ 16 1013.9F   1/ 3
NORTHPORT PIER   2100   81     150/ 10/ 12 1013.9F
SISTER BAY       2106   85     220/ 14/ 18   N/A
ALGOMA LAKESHORE 2113          220/ 13/ 15   N/A
KEWAUNEE LAKESHO 2100   66     170/  8/ 13 1015.2F
SHEBOYGAN LAKESH 2100   75     170/ 13/ 13 1016.2F
PORT WASHINGTON  2100   79     190/  6/  8 1016.9
ATWATER BUOY     2100   67 55  200/  4/  6 1018.0F
MILWAUKEE LAKESH 2110   68     140/  8/  9   N/A
S MID LAKE BUOY  2050   76 77  260/  4/  6 1016.3F   0
KENOSHA   LAKESH 2100   78     130/  8/  8 1015.9F
$$

TC  - TEMPERATURE IN CELSIUS
VSB - VISIBILITY IN STATUTE MILES
WCI - WIND CHILL INDEX
HX  - HEAT INDEX





USA.gov is the U.S. government's official web portal to all federal, state and local government web resources and services.